Regional Weather Roundup
Issued by NWS Green Bay, WI

Home | Current Version | Previous Version | Text Only | Print | Product List | Glossary On
Versions: 1 2 3 4 5 6 7 8 9 10 11 12 13 14 15 16 17 18 19 20 21 22 23 24 25 26 27 28 29 30 31 32 33 34 35 36 37 38 39 40 41 42 43 44 45 46 47 48 49 50
000
ASUS43 KGRB 060410
RWRGRB

NORTH-CENTRAL AND NORTHEAST WISCONSIN REGIONAL WEATHER ROUNDUP
NATIONAL WEATHER SERVICE GREEN BAY WI
1100 PM CDT TUE MAY 05 2015

WIZ005-009-010>012-018-019-060500-
NORTH CENTRAL WISCONSIN

CITY           SKY/WX    TMP DP  RH WIND       PRES   REMARKS
IRONWOOD       CLEAR     59  27  29 S7        30.18S
MANITOWISH WTR CLEAR     52  29  40 S5        30.23S
ARBOR VITAE    CLEAR     57  29  34 SE3       30.24S
EAGLE RIVER    CLEAR     49  27  42 S3        30.25S
LAND O LAKES   CLEAR     52  28  39 SE3       30.25S
RHINELANDER    PTCLDY    51  26  37 SE5       30.25S
PHILLIPS       MOCLDY    55  29  37 CALM      30.22S
ANTIGO         MOCLDY    50  33  50 E6        30.25F
TOMAHAWK       MOCLDY    49  29  45 CALM      30.25S
MERRILL        MOCLDY    51  28  41 CALM      30.25S
$$

WIZ013-073-060500-
NORTHEAST WISCONSIN

CITY           SKY/WX    TMP DP  RH WIND       PRES   REMARKS
IRON MOUNTAIN  CLEAR     45  29  53 CALM      30.25S
MARINETTE      PTCLDY    48  34  57 CALM      30.26S
OCONTO         CLOUDY    51  41  69 CALM      30.26S
$$

WIZ017-030-035>037-045-060500-
CENTRAL WISCONSIN

CITY           SKY/WX    TMP DP  RH WIND       PRES   REMARKS
MEDFORD        CLOUDY    55  24  30 SE6       30.22S
WAUSAU         CLOUDY    56  23  27 E7        30.22S
MOSINEE        CLOUDY    55  27  33 SE5       30.25S
MARSHFIELD     LGT RAIN  54  45  71 SE7       30.22S
WISC RAPIDS    LGT RAIN  54  43  66 SE6       30.24S
STEVENS POINT  CLOUDY    55  42  59 SE5       30.24F
WAUPACA        LGT RAIN  58  47  66 SE3       30.25S
SHAWANO        CLOUDY    56  29  35 CALM      30.26S
CLINTONVILLE   CLOUDY    55  28  35 E3        30.25S
$$

WIZ038-039-048-051-060500-
FOX VALLEY

CITY           SKY/WX    TMP DP  RH WIND       PRES   REMARKS
NWS GREEN BAY  CLOUDY    54  35  48 SE7       30.25F
APPLETON       MOCLDY    57  36  44 E7        30.25F
OSHKOSH        CLOUDY    56  41  57 E8        30.24F
FOND DU LAC    CLOUDY    53  43  68 E5        30.25S
$$

WIZ022-050-052-060500-
EAST CENTRAL WISCONSIN

CITY           SKY/WX    TMP DP  RH WIND       PRES   REMARKS
STURGEON BAY   CLOUDY    52  32  46 E3        30.28F
MANITOWOC      CLOUDY    48  40  73 W3        30.27F
SHEBOYGAN      CLOUDY    47  38  71 NE6       30.26F
$$

LMZ563-521-522-541>543-060500-
LAKESHORE

STATION/POSITION TIME  TEMP    WIND        PRES    VSBY  WAVE
                       AIR SEA DIR/SP/G                  HT/PER
                 (UTC) (F)     (DEG/KT/KT) (MB)    (MI)  (FT/S)
SHEBOYGAN LKSHOR 0400   47      10/  4/  4 1025.2F
KEWAUNEE LKSHORE 0400   47     300/  2/  3 1024.0S
NORTHPORT PIER   0400   49     300/  3/  3 1024.7S
SISTER BAY LKSHO 0400   46        CALM       N/A
CHAMBERS ISLAND  0400   43        CALM     1025.1S
MENOMINEE LKSHOR 0400   50     350/  2/  2 1025.2F
$$



USA.gov is the U.S. government's official web portal to all federal, state and local government web resources and services.